Findlay, OH

6:14 AM EST on December 06, 2019 (GMT -0500)
Findlay

Weather History for KFDY - November, 2019

Change the Weather History Date:

Thursday, November 21, 2019

  Actual Average Record
Temperature  
Mean Temperature 46 °F -  
Max Temperature 55 °F 43 °F 66 °F (1979)
Min Temperature 37 °F 31 °F 10 °F (2014)
Degree Days  
Heating Degree Days 19    
Moisture  
Dew Point 42 °F    
Average Humidity 80    
Maximum Humidity 89    
Minimum Humidity 61    
Precipitation  
Precipitation 0.00 in - - ()
Sea Level Pressure  
Sea Level Pressure 29.95 in    
Wind  
Wind Speed 14 mph (SSW)    
Max Wind Speed 32 mph    
Max Gust Speed 44 mph    
Visibility 9 miles    
Events Rain    
Averages and records for this station are not official NWS values.
T = Trace of Precipitation, MM = Missing Value Source: NWS Daily Summary

Daily Weather History Graph

Daily Weather History Graph

Search for Another Location

Airport or City:

Astronomy

Nov. 21, 2019 Rise Set
Actual Time 7:28 AM EST 5:11 PM EST
Civil Twilight 6:59 AM EST 5:41 PM EST
Nautical Twilight 6:25 AM EST 6:15 PM EST
Astronomical Twilight 5:52 AM EST 6:47 PM EST
Moon 1:19 AM EST (11/21) 2:43 PM EST (11/21)
Length of Visible Light 10h 42m
Length of Day
9h 42m
Waning Crescent, 30% of the Moon is Illuminated
Nov 21
Waning Crescent
Nov 26
New
Dec 4
First Quarter
Dec 12
Full
Dec 18
Last Quarter

Hourly Weather History & Observations

Time (EST) Temp. Windchill Dew Point Humidity Pressure Visibility Wind Dir Wind Speed Gust Speed Precip Events Conditions
12:53 AM 39.0 °F 33.4 °F 33.1 °F 79% 30.19 in 8.0 mi SE 8.1 mph - N/A   Clear
1:53 AM 37.9 °F 31.5 °F 33.1 °F 83% 30.18 in 7.0 mi SSE 9.2 mph - N/A   Partly Cloudy
2:53 AM 37.9 °F 32.1 °F 33.1 °F 83% 30.17 in 7.0 mi SSE 8.1 mph - N/A   Clear
3:53 AM 37.9 °F 31.5 °F 34.0 °F 86% 30.16 in 6.0 mi SE 9.2 mph - N/A   Clear
4:53 AM 37.9 °F 31.5 °F 34.0 °F 86% 30.13 in 6.0 mi SSE 9.2 mph - N/A   Clear
5:53 AM 37.9 °F 31.5 °F 35.1 °F 89% 30.11 in 6.0 mi SSE 9.2 mph - N/A   Clear
6:53 AM 39.9 °F 32.9 °F 36.0 °F 86% 30.09 in 6.0 mi SSE 11.5 mph - N/A   Clear
7:53 AM 42.1 °F 35.2 °F 37.0 °F 82% 30.06 in 8.0 mi SSE 12.7 mph - N/A   Clear
8:53 AM 44.1 °F 37.4 °F 37.9 °F 79% 30.05 in 9.0 mi South 13.8 mph - N/A   Mostly Cloudy
9:53 AM 45.0 °F 38.9 °F 39.0 °F 80% 30.02 in 10.0 mi SSE 12.7 mph - N/A   Scattered Clouds
10:53 AM 46.9 °F - 39.9 °F 77% 30.01 in 10.0 mi South 11.5 mph - N/A   Overcast
11:53 AM 50.0 °F - 39.9 °F 68% 29.94 in 10.0 mi South 15.0 mph - N/A   Overcast
12:53 PM 51.1 °F - 39.9 °F 66% 29.89 in 10.0 mi South 16.1 mph - 0.00 in Rain Light Rain
1:53 PM 53.1 °F - 39.9 °F 61% 29.84 in 10.0 mi South 20.7 mph 27.6 mph 0.00 in   Overcast
2:53 PM 55.9 °F - 43.0 °F 62% 29.79 in 10.0 mi SSW 32.2 mph 38.0 mph 0.00 in Rain Light Rain
3:25 PM 55.9 °F - 44.1 °F 64% 29.78 in 10.0 mi SSW 24.2 mph 35.7 mph 0.00 in Rain Light Rain
3:53 PM 55.0 °F - 46.9 °F 74% 29.79 in 9.0 mi SSW 28.8 mph 43.7 mph 0.00 in Rain Light Rain
4:53 PM 53.1 °F - 48.0 °F 83% 29.81 in 10.0 mi SW 16.1 mph 25.3 mph 0.00 in Rain Light Rain
5:15 PM 54.0 °F - 48.0 °F 80% 29.81 in 10.0 mi SW 23.0 mph 34.5 mph 0.00 in Rain Light Rain
5:53 PM 53.1 °F - 48.9 °F 86% 29.82 in 10.0 mi SW 18.4 mph 29.9 mph 0.00 in Rain Light Rain
6:53 PM 53.1 °F - 48.9 °F 86% 29.81 in 9.0 mi SSW 23.0 mph 33.4 mph 0.00 in Rain Light Rain
7:53 PM 53.1 °F - 50.0 °F 89% 29.83 in 8.0 mi SW 19.6 mph 27.6 mph 0.00 in Rain Light Rain
8:53 PM 53.1 °F - 50.0 °F 89% 29.83 in 6.0 mi SW 16.1 mph 26.5 mph 0.00 in Rain Light Rain
9:36 PM 53.1 °F - 50.0 °F 89% 29.84 in 10.0 mi WSW 19.6 mph 29.9 mph 0.00 in Rain Light Rain
10:53 PM 51.1 °F - 46.9 °F 86% 29.86 in 10.0 mi West 18.4 mph 26.5 mph 0.00 in   Overcast
11:28 PM 51.1 °F - 46.0 °F 83% 29.86 in 10.0 mi West 18.4 mph 28.8 mph N/A   Overcast
11:53 PM 50.0 °F - 45.0 °F 83% 29.87 in 10.0 mi West 17.3 mph 27.6 mph N/A   Overcast